Pampa, TX

9:14 AM CDT on September 20, 2017 (GMT -0500)
Perry Lefors

Weather History for KPPA - May, 2014

Change the Weather History Date:

Friday, May 9, 2014

  Actual Average Record
Temperature  
Mean Temperature 62 °F -  
Max Temperature 81 °F 77 °F 95 °F (2011)
Min Temperature 42 °F 48 °F 34 °F (1976)
Degree Days  
Heating Degree Days 4    
Growing Degree Days 12 (Base 50)    
Moisture  
Dew Point 27 °F    
Average Humidity 32    
Maximum Humidity 74    
Minimum Humidity 9    
Precipitation  
Precipitation 0.00 in - - ()
Sea Level Pressure  
Sea Level Pressure 29.92 in    
Wind  
Wind Speed 9 mph (West)    
Max Wind Speed 21 mph    
Max Gust Speed 29 mph    
Visibility 10 miles    
Events      
Averages and records for this station are not official NWS values.
T = Trace of Precipitation, MM = Missing Value Source: NWS Daily Summary

Daily Weather History Graph

Daily Weather History Graph

Search for Another Location

Airport or City:

Trip Planner

Search our weather history database for the weather conditions in past years. The results will help you decide how hot, cold, wet, or windy it might be!

Date:

Astronomy

May. 09, 2014 Rise Set
Actual Time 6:44 AM CDT 8:37 PM CDT
Civil Twilight 6:16 AM CDT 9:05 PM CDT
Nautical Twilight 5:42 AM CDT 9:39 PM CDT
Astronomical Twilight 5:06 AM CDT 10:15 PM CDT
Moon 3:46 PM CDT (5/9) 3:36 AM CDT (5/9)
Length of Visible Light 14h 48m
Length of Day
13h 53m
Waxing Gibbous, 74% of the Moon is Illuminated
May 9
Waxing Gibbous
May 14
Full
May 21
Last Quarter
May 28
New
Jun 5
First Quarter

Hourly Weather History & Observations

Time (CDT) Temp. Windchill Dew Point Humidity Pressure Visibility Wind Dir Wind Speed Gust Speed Precip Events Conditions
12:15 AM 57.2 °F - 20.3 °F 24% 29.89 in 10.0 mi NW 5.8 mph - N/A   Clear
12:35 AM 55.4 °F - 20.5 °F 26% 29.89 in 10.0 mi WNW 5.8 mph - N/A   Clear
12:55 AM 54.7 °F - 20.8 °F 27% 29.90 in 10.0 mi WNW 6.9 mph - N/A   Clear
1:15 AM 52.5 °F - 21.2 °F 29% 29.91 in 10.0 mi NNW 9.2 mph - N/A   Clear
1:35 AM 53.4 °F - 21.2 °F 28% 29.91 in 10.0 mi NNW 3.5 mph - N/A   Clear
1:55 AM 52.5 °F - 22.1 °F 31% 29.91 in 10.0 mi North 6.9 mph - N/A   Clear
2:15 AM 51.8 °F - 27.9 °F 40% 29.92 in 10.0 mi NNE 10.4 mph - N/A   Clear
2:35 AM 53.6 °F - 32.5 °F 45% 29.91 in 10.0 mi ENE 8.1 mph - N/A   Clear
2:55 AM 52.9 °F - 33.8 °F 48% 29.92 in 10.0 mi NNE 10.4 mph - N/A   Clear
3:15 AM 52.5 °F - 33.8 °F 49% 29.93 in 10.0 mi NE 12.7 mph - N/A   Clear
3:35 AM 51.8 °F - 34.2 °F 51% 29.93 in 10.0 mi NE 11.5 mph - N/A   Clear
3:55 AM 49.8 °F - 34.0 °F 55% 29.94 in 10.0 mi NE 9.2 mph - N/A   Clear
4:15 AM 47.5 °F - 33.3 °F 58% 29.95 in 10.0 mi NNE 10.4 mph - N/A   Clear
4:35 AM 47.8 °F - 34.3 °F 60% 29.97 in 10.0 mi North 9.2 mph - N/A   Clear
5:15 AM 44.8 °F 41.6 °F 33.4 °F 64% 29.97 in 10.0 mi NNW 5.8 mph - N/A   Clear
5:35 AM 43.5 °F 39.4 °F 33.4 °F 68% 29.97 in 10.0 mi North 6.9 mph - N/A   Clear
5:55 AM 42.4 °F 38.1 °F 33.4 °F 70% 29.98 in 10.0 mi NNW 6.9 mph - N/A   Clear
6:15 AM 42.3 °F 37.3 °F 33.3 °F 70% 29.99 in 10.0 mi NNW 8.1 mph - N/A   Clear
6:55 AM 42.1 °F 38.4 °F 34.3 °F 74% 30.00 in 10.0 mi North 5.8 mph - N/A   Clear
7:15 AM 42.8 °F 40.1 °F 34.9 °F 74% 30.01 in 10.0 mi NW 4.6 mph - N/A   Clear
7:35 AM 45.0 °F 42.6 °F 35.6 °F 70% 30.02 in 10.0 mi NNW 4.6 mph - N/A   Clear
7:55 AM 47.7 °F - 36.7 °F 66% 30.03 in 10.0 mi NNW 4.6 mph - N/A   Clear
8:15 AM 49.5 °F - 37.4 °F 63% 30.03 in 10.0 mi North 5.8 mph - N/A   Clear
8:35 AM 51.3 °F - 37.2 °F 59% 30.03 in 10.0 mi NNE 4.6 mph - N/A   Clear
8:55 AM 52.7 °F - 36.7 °F 55% 30.05 in 10.0 mi North 5.8 mph - N/A   Clear
9:15 AM 54.1 °F - 37.0 °F 52% 30.03 in 10.0 mi North 3.5 mph - N/A   Clear
9:35 AM 55.2 °F - 37.2 °F 51% 30.03 in 10.0 mi Calm Calm - N/A   Clear
9:55 AM 57.2 °F - 37.2 °F 47% 30.02 in 10.0 mi NNE 3.5 mph - N/A   Clear
10:15 AM 58.6 °F - 36.7 °F 44% 30.02 in 10.0 mi NNE 3.5 mph - N/A   Clear
10:35 AM 60.4 °F - 36.5 °F 41% 30.01 in 10.0 mi East 4.6 mph - N/A   Clear
11:15 AM 64.4 °F - 34.7 °F 33% 30.00 in 10.0 mi South 4.6 mph - N/A   Clear
11:35 AM 65.5 °F - 34.0 °F 31% 30.00 in 10.0 mi WNW 3.5 mph - N/A   Clear
11:55 AM 67.8 °F - 33.8 °F 28% 30.00 in 10.0 mi WSW 5.8 mph - N/A   Clear
12:15 PM 68.2 °F - 33.6 °F 28% 30.00 in 10.0 mi WSW 4.6 mph - N/A   Clear
12:35 PM 68.9 °F - 32.7 °F 26% 30.00 in 10.0 mi SW 4.6 mph - N/A   Clear
12:55 PM 71.4 °F - 30.6 °F 22% 29.99 in 10.0 mi WSW 3.5 mph - N/A   Clear
1:15 PM 71.2 °F - 29.5 °F 21% 29.97 in 10.0 mi WSW 6.9 mph - N/A   Clear
1:35 PM 73.0 °F - 27.5 °F 18% 29.96 in 10.0 mi West 10.4 mph - N/A   Clear
1:55 PM 72.0 °F - 27.9 °F 19% 29.95 in 10.0 mi WSW 11.5 mph 17.3 mph N/A   Clear
2:15 PM 73.6 °F - 26.6 °F 17% 29.94 in 10.0 mi West 8.1 mph 17.3 mph N/A   Clear
2:35 PM 76.6 °F - 25.5 °F 15% 29.93 in 10.0 mi West 13.8 mph 21.9 mph N/A   Clear
2:55 PM 76.1 °F - 24.3 °F 15% 29.92 in 10.0 mi WSW 6.9 mph 19.6 mph N/A   Clear
3:15 PM 76.8 °F - 23.7 °F 14% 29.91 in 10.0 mi SW 6.9 mph 17.3 mph N/A   Clear
3:35 PM 77.2 °F - 24.1 °F 14% 29.89 in 10.0 mi SSW 9.2 mph 18.4 mph N/A   Clear
3:55 PM 77.7 °F - 21.7 °F 12% 29.89 in 10.0 mi West 8.1 mph 21.9 mph N/A   Clear
4:15 PM 78.8 °F - 22.1 °F 12% 29.87 in 10.0 mi SW 17.3 mph 24.2 mph N/A   Clear
4:35 PM 78.6 °F - 21.4 °F 12% 29.86 in 10.0 mi WSW 15.0 mph 26.5 mph N/A   Clear
4:55 PM 79.9 °F - 21.0 °F 11% 29.85 in 10.0 mi WSW 20.7 mph 25.3 mph N/A   Clear
5:15 PM 80.4 °F - 21.7 °F 11% 29.84 in 10.0 mi WSW 15.0 mph 25.3 mph N/A   Clear
5:35 PM 80.2 °F - 21.9 °F 12% 29.83 in 10.0 mi SW 18.4 mph 23.0 mph N/A   Clear
5:55 PM 79.7 °F - 21.2 °F 11% 29.82 in 10.0 mi SW 16.1 mph 26.5 mph N/A   Clear
6:15 PM 80.8 °F - 20.3 °F 11% 29.82 in 10.0 mi WSW 16.1 mph 23.0 mph N/A   Clear
6:35 PM 81.5 °F - 18.9 °F 10% 29.81 in 10.0 mi SW 18.4 mph 27.6 mph N/A   Clear
6:55 PM 79.7 °F - 17.4 °F 10% 29.80 in 10.0 mi SW 20.7 mph 26.5 mph N/A   Clear
7:15 PM 79.5 °F - 16.5 °F 9% 29.80 in 10.0 mi SW 19.6 mph 25.3 mph N/A   Clear
7:35 PM 78.8 °F - 15.4 °F 9% 29.80 in 10.0 mi SW 20.7 mph 28.8 mph N/A   Clear
7:55 PM 77.4 °F - 15.8 °F 10% 29.80 in 10.0 mi SW 12.7 mph - N/A   Clear
8:15 PM 76.1 °F - 16.2 °F 10% 29.80 in 10.0 mi SW 12.7 mph - N/A   Clear
8:35 PM 71.4 °F - 15.6 °F 12% 29.80 in 10.0 mi SSW 8.1 mph - N/A   Clear
8:55 PM 68.4 °F - 14.7 °F 13% 29.80 in 10.0 mi South 9.2 mph - N/A   Clear
9:15 PM 67.6 °F - 14.0 °F 13% 29.80 in 10.0 mi South 10.4 mph - N/A   Clear
9:35 PM 65.8 °F - 14.0 °F 13% 29.80 in 10.0 mi South 10.4 mph - N/A   Clear
9:55 PM 64.4 °F - 14.0 °F 14% 29.81 in 10.0 mi South 11.5 mph - N/A   Clear
10:15 PM 64.4 °F - 13.8 °F 14% 29.82 in 10.0 mi South 10.4 mph - N/A   Clear
10:35 PM 65.5 °F - 26.8 °F 23% 29.83 in 10.0 mi South 16.1 mph 20.7 mph N/A   Clear
10:55 PM 65.3 °F - 32.0 °F 29% 29.84 in 10.0 mi South 17.3 mph 25.3 mph N/A   Clear
11:15 PM 64.4 °F - 33.1 °F 31% 29.85 in 10.0 mi South 18.4 mph 26.5 mph N/A   Clear
11:35 PM 64.0 °F - 34.0 °F 33% 29.85 in 10.0 mi South 17.3 mph - N/A   Clear
11:55 PM 63.0 °F - 34.0 °F 34% 29.85 in 10.0 mi South 15.0 mph - N/A   Clear